[[{"header":{"parameterUnit":"m.s-1","parameterCategory":1,"la1":30.2991,"la2":30.254,"lo1":-89.0895,"lo2":-89.0444,"dy":0.0017,"dx":0.0017,"nx":28,"ny":28,"refTime":"2025-05-29T09:00:00:Z","depth":0,"parameterNumber":2,"parameterNumberName":"U-component_of_WINDS"},"data":[0,0,0,0,0,0,0,0,0,0,0,0,0,0,0,0,0,0,0,0,0,0,0,0,0,0,0,0,0,0,0,0,0,0,0,0,0,0,0,0,0,0,0,0,0,0,0,0,0,0,0,0,0,0,0,0,0,0,-3.9639,-3.9639,0,-3.9679,-3.968,-3.968,-3.9569,-3.9565,-3.9562,-3.9558,-3.96,-3.9604,-3.9609,0,0,0,0,0,0,0,0,0,0,0,0,0,-3.9464,-3.9467,-3.9639,-3.9639,-3.964,-3.9679,-3.968,-3.968,-3.9569,-3.9565,-3.9561,-3.9557,-3.9599,-3.9604,-3.9609,0,0,0,0,0,0,0,0,0,0,0,0,0,-3.9526,-3.9469,-3.9638,-3.9589,-3.9585,-3.9679,-3.968,-3.968,-3.957,-3.9565,-3.956,-3.9555,-3.9597,-3.9603,-3.961,-3.9754,0,0,-3.963,-3.9632,0,0,0,0,0,0,0,0,-3.9522,-3.9532,-3.9596,-3.9593,-3.9588,-3.9613,-3.9633,-3.9705,-3.9571,-3.9576,-3.9558,-3.9552,-3.9609,-3.9614,-3.9633,-3.9756,-3.9757,-3.963,-3.9634,-3.9637,-3.9639,0,0,0,0,0,0,0,-3.9518,-3.953,-3.9655,-3.9597,-3.9592,-3.9564,-3.9567,-3.9646,-3.9621,-3.9575,-3.9567,-3.9573,-3.9606,-3.9627,-3.9633,-3.9758,-3.963,-3.9636,-3.964,-3.9642,-3.9999,-4.0005,0,0,0,0,0,0,-3.952,-3.9527,-3.9653,-3.9656,-3.9542,-3.9572,-3.9575,-3.9611,-3.962,-3.9616,-3.9578,-3.9568,-3.9618,-3.9626,-3.9634,-3.9802,-3.9637,-3.9643,-3.9647,-3.9994,-4.0,-4.0007,0,0,0,0,0,0,-3.9517,-3.9533,-3.9652,-3.9589,-3.9602,-3.958,-3.9621,-3.9614,-3.9635,-3.9622,-3.9617,-3.9604,-3.9615,-3.9625,-3.9724,-3.9802,-3.9646,-3.9652,-3.9987,-3.9996,-4.0004,-4.0141,0,0,0,0,0,0,-3.9512,-3.9532,-3.9587,-3.9591,-3.9606,-3.9742,-3.9626,-3.9619,-3.9647,-3.9634,-3.9645,-3.9642,-3.9611,-3.9715,-3.9731,-3.9808,-3.9657,-3.998,-3.9991,-4.0001,-4.0129,-4.0153,-4.0173,0,0,0,0,0,-3.9507,-3.9624,-3.959,-3.9606,-3.9674,-3.9747,-3.9755,-3.9717,-3.9654,-3.9708,-3.9699,-3.9642,-3.9791,-3.9727,-3.9743,-3.9824,-3.9975,-3.9988,-4.0,-4.0119,-4.0148,-4.0172,0,0,0,0,0,0,-3.963,-3.9624,-3.9586,-3.9709,-3.9729,-3.9728,-3.9795,-3.9749,-3.9788,-3.9775,-3.9726,-3.973,-3.9838,-3.9841,-3.9769,-3.9963,-3.9872,-3.9889,-3.9957,-3.9984,-4.0006,-4.0003,-3.9662,0,0,0,0,0,-3.9671,-3.9731,-3.9722,-3.9832,-3.9844,-3.9818,-3.9848,-3.9817,-3.9836,-3.9844,-3.9843,-3.9863,-3.9914,-3.9949,-3.9996,-4.0129,-4.0129,-4.0192,-4.0214,-4.0232,-4.0247,-4.0316,-4.0344,-4.0048,-4.0048,-4.0047,0,0,-3.9758,-3.9762,-3.9803,-3.9856,-3.9868,-3.9931,-3.9826,-3.9897,-3.9942,-3.9855,-3.9948,-3.9948,-3.9968,-4.0084,-4.0135,-4.009,-4.0329,-4.0248,-4.0263,-4.0268,-4.0332,-4.036,-4.0385,-4.0056,-4.0055,-4.0053,0,0,-3.9947,-3.9956,-4.0047,-4.0061,-4.0081,-4.0063,-4.0085,-4.009,-4.0087,-4.018,-4.0115,-4.0169,-4.0258,-4.0275,-4.0295,-4.0489,-4.0437,-4.0506,-4.062,-4.0688,-4.0711,-4.0732,-4.08,-4.0825,-4.052,-4.0521,-4.0521,0,-4.0052,-4.0143,-4.01,-4.0175,-4.02,-4.0124,-4.0215,-4.0231,-4.0265,-4.0284,-4.0232,-4.0342,-4.035,-4.0469,-4.0516,-4.0535,-4.0558,-4.0504,-4.0711,-4.0731,-4.075,-4.0814,-4.084,-4.0529,-4.0528,-4.0527,-4.0526,0,-4.027,-4.0335,-4.0406,-4.044,-4.0473,-4.0557,-4.0526,-4.0564,-4.053,-4.0518,-4.0613,-4.062,-4.0666,-4.0692,-4.066,-4.0806,-4.0777,-4.0719,-4.0627,-4.0787,-4.0847,-4.0871,-4.054,-4.0537,-4.0535,-4.0533,0,0,-4.0539,-4.0547,-4.0574,-4.0588,-4.0603,-4.0652,-4.0731,-4.0776,-4.081,-4.0835,-4.09,-4.0977,-4.0924,-4.0947,-4.0916,-4.0976,-4.1128,-4.091,-4.091,-4.095,-4.1288,-4.1331,-4.1361,-4.1094,-4.1098,-4.1102,-4.1286,0,-4.0724,-4.086,-4.0823,-4.0958,-4.1017,-4.0944,-4.1013,-4.103,-4.102,-4.1068,-4.1057,-4.1112,-4.1037,-4.1051,-4.1107,-4.1098,-4.1195,-4.1084,-4.1153,-4.1156,-4.115,-4.1392,-4.1438,-4.1612,-4.131,-4.1314,-4.1316,0,-4.0959,-4.0993,-4.1134,-4.1139,-4.1162,-4.1224,-4.1262,-4.1309,-4.1326,-4.1314,-4.134,-4.1296,-4.1373,-4.1281,-4.1387,-4.1312,-4.1338,-4.1338,-4.1343,-4.1348,-4.1246,-4.1403,-4.1666,-4.1692,-4.1353,-4.135,-4.1347,0,-4.114,-4.1221,-4.1315,-4.133,-4.1338,-4.1383,-4.1388,-4.14,-4.1429,-4.1462,-4.148,-4.1522,-4.1545,-4.1578,-4.1546,-4.1482,-4.1657,-4.1562,-4.1649,-4.165,-4.1689,-4.1687,-4.196,-4.1707,-4.1706,-4.1706,-4.1705,0,-4.135,-4.1439,-4.1396,-4.1455,-4.1552,-4.1508,-4.1606,-4.1602,-4.1614,-4.1669,-4.161,-4.1663,-4.1619,-4.1669,-4.1645,-4.1735,-4.1746,-4.1739,-4.1732,-4.1744,-4.1745,-4.176,-4.1747,-4.1713,-4.1711,-4.171,-4.1709,0,-4.1568,-4.1543,-4.1641,-4.164,-4.1642,-4.1714,-4.1713,-4.1766,-4.1752,-4.1823,-4.1837,-4.1815,-4.187,-4.1842,-4.19,-4.1884,-4.2001,-4.1977,-4.1995,-4.1989,-4.2077,-4.2069,-4.2369,-4.2406,-4.213,-4.2133,-4.2135,0,-4.1704,-4.1771,-4.1777,-4.181,-4.1819,-4.1873,-4.1902,-4.1862,-4.1894,-4.1918,-4.1969,-4.2019,-4.2057,-4.2148,-4.2137,-4.2181,-4.2158,-4.226,-4.2164,-4.2174,-4.2158,-4.2155,-4.2161,-4.2279,-4.2282,-4.2285,-4.2287,0,-4.1948,-4.1932,-4.1976,-4.2016,-4.2052,-4.2081,-4.2106,-4.2136,-4.2096,-4.2136,-4.2191,-4.2221,-4.2279,-4.2329,-4.2367,-4.2372,-4.2324,-4.2317,-4.234,-4.2353,-4.236,-4.2357,-4.2047,-4.2311,-4.2308,-4.2307,-4.2305,-4.2304,-4.2128,-4.2184,-4.2196,-4.2247,-4.2261,-4.2285,-4.2334,-4.2326,-4.2372,-4.2416,-4.2389,-4.2454,-4.2468,-4.2514,-4.2525,-4.2576,-4.2535,-4.2567,-4.2576,-4.2584,-4.2596,-4.2353,-4.2582,-4.2582,-4.2581,-4.258,-4.258,0,-4.2368,-4.2372,-4.2419,-4.2455,-4.2495,-4.2445,-4.2469,-4.2505,-4.2563,-4.2581,-4.2619,-4.2682,-4.2731,-4.2723,-4.2767,-4.2809,-4.2788,-4.2822,-4.2818,-4.282,-4.263,-4.2606,-4.2838,-4.2838,-4.2838,-4.2838,-4.2838,-4.2838,-4.2497,-4.2588,-4.2573,-4.267,-4.2673,-4.2736,-4.2754,-4.2776,-4.2789,-4.2863,-4.2902,-4.2897,-4.2904,-4.2948,-4.299,-4.2986,-4.3005,-4.3048,-4.3036,-4.2859,-4.2833,-4.2809,-4.2786,-4.3052,-4.3053,-4.3221,-4.3223,-4.3224]},{"header":{"parameterUnit":"m.s-1","parameterCategory":1,"la1":30.2991,"la2":30.254,"lo1":-89.0895,"lo2":-89.0444,"dy":0.0017,"dx":0.0017,"nx":28,"ny":28,"refTime":"2025-05-29T09:00:00:Z","depth":0,"parameterNumber":3,"parameterNumberName":"V-component_of_WINDS"},"data":[0,0,0,0,0,0,0,0,0,0,0,0,0,0,0,0,0,0,0,0,0,0,0,0,0,0,0,0,0,0,0,0,0,0,0,0,0,0,0,0,0,0,0,0,0,0,0,0,0,0,0,0,0,0,0,0,0,0,-0.5423,-0.5423,0,-0.542,-0.542,-0.542,-0.5433,-0.5433,-0.5433,-0.5434,-0.5429,-0.5428,-0.5428,0,0,0,0,0,0,0,0,0,0,0,0,0,-0.5436,-0.5436,-0.5423,-0.5423,-0.5423,-0.542,-0.542,-0.542,-0.5433,-0.5433,-0.5434,-0.5434,-0.5429,-0.5428,-0.5428,0,0,0,0,0,0,0,0,0,0,0,0,0,-0.5431,-0.5436,-0.5423,-0.5429,-0.5429,-0.542,-0.542,-0.542,-0.5432,-0.5433,-0.5434,-0.5434,-0.5429,-0.5428,-0.5428,-0.5412,0,0,-0.5425,-0.5425,0,0,0,0,0,0,0,0,-0.5432,-0.5431,-0.5428,-0.5428,-0.5429,-0.5427,-0.5423,-0.5417,-0.5432,-0.5431,-0.5434,-0.5434,-0.5428,-0.5427,-0.5425,-0.5411,-0.5411,-0.5425,-0.5425,-0.5425,-0.5424,0,0,0,0,0,0,0,-0.5432,-0.5431,-0.5422,-0.5428,-0.5428,-0.5431,-0.5431,-0.5422,-0.5426,-0.5431,-0.5432,-0.5432,-0.5428,-0.5426,-0.5425,-0.5411,-0.5425,-0.5425,-0.5424,-0.5424,-0.5381,-0.538,0,0,0,0,0,0,-0.5432,-0.5431,-0.5422,-0.5421,-0.5432,-0.543,-0.543,-0.5427,-0.5426,-0.5427,-0.5431,-0.5432,-0.5427,-0.5426,-0.5425,-0.5404,-0.5425,-0.5424,-0.5424,-0.5382,-0.5381,-0.538,0,0,0,0,0,0,-0.5432,-0.5431,-0.5422,-0.5427,-0.5426,-0.5429,-0.5426,-0.5427,-0.5425,-0.5426,-0.5427,-0.5429,-0.5427,-0.5426,-0.5414,-0.5404,-0.5424,-0.5423,-0.5382,-0.5381,-0.538,-0.5363,0,0,0,0,0,0,-0.5433,-0.5431,-0.5426,-0.5426,-0.5425,-0.5412,-0.5425,-0.5426,-0.5424,-0.5425,-0.5424,-0.5424,-0.5428,-0.5415,-0.5414,-0.5404,-0.5422,-0.5383,-0.5382,-0.5381,-0.5365,-0.5362,-0.5359,0,0,0,0,0,-0.5433,-0.5421,-0.5426,-0.5424,-0.5419,-0.5412,-0.5411,-0.5416,-0.5423,-0.5417,-0.5417,-0.5424,-0.5406,-0.5414,-0.5412,-0.5402,-0.5384,-0.5382,-0.5381,-0.5366,-0.5363,-0.5359,0,0,0,0,0,0,-0.5419,-0.5422,-0.5426,-0.5415,-0.5413,-0.5414,-0.5407,-0.5412,-0.5408,-0.5409,-0.5414,-0.5414,-0.5401,-0.54,-0.5409,-0.5385,-0.5396,-0.5394,-0.5385,-0.5382,-0.5379,-0.5379,-0.5422,0,0,0,0,0,-0.5415,-0.541,-0.5412,-0.5401,-0.54,-0.5403,-0.54,-0.5404,-0.5402,-0.5401,-0.5401,-0.5398,-0.5391,-0.5387,-0.5381,-0.5365,-0.5364,-0.5357,-0.5354,-0.5352,-0.535,-0.5338,-0.5335,-0.5375,-0.5375,-0.5375,0,0,-0.5406,-0.5407,-0.5403,-0.5398,-0.5397,-0.539,-0.5403,-0.5395,-0.5389,-0.54,-0.5388,-0.5388,-0.5385,-0.537,-0.5364,-0.5369,-0.5338,-0.535,-0.5348,-0.5347,-0.5336,-0.5333,-0.5329,-0.5374,-0.5374,-0.5374,0,0,-0.5386,-0.5387,-0.5377,-0.5375,-0.5373,-0.5375,-0.5373,-0.5373,-0.5373,-0.5361,-0.5368,-0.5361,-0.535,-0.5347,-0.5344,-0.532,-0.5325,-0.5318,-0.5303,-0.5292,-0.5289,-0.5286,-0.5275,-0.5272,-0.5316,-0.5316,-0.5316,0,-0.5375,-0.5365,-0.5371,-0.5363,-0.5359,-0.5368,-0.5357,-0.5355,-0.5351,-0.5348,-0.5355,-0.534,-0.5338,-0.5322,-0.5316,-0.5314,-0.5309,-0.5317,-0.5289,-0.5286,-0.5284,-0.5273,-0.527,-0.5315,-0.5315,-0.5315,-0.5315,0,-0.5351,-0.5344,-0.5336,-0.5332,-0.5328,-0.5318,-0.5321,-0.5316,-0.5319,-0.532,-0.5307,-0.5305,-0.5298,-0.5295,-0.5299,-0.5278,-0.5281,-0.5288,-0.5299,-0.5279,-0.5269,-0.5265,-0.5313,-0.5314,-0.5314,-0.5314,0,0,-0.5322,-0.532,-0.5317,-0.5314,-0.5312,-0.5306,-0.5296,-0.5289,-0.5284,-0.528,-0.527,-0.526,-0.5265,-0.5262,-0.5265,-0.5256,-0.5234,-0.5263,-0.5263,-0.5256,-0.5208,-0.5202,-0.5197,-0.5237,-0.5237,-0.5236,-0.5208,0,-0.5301,-0.5284,-0.5288,-0.5271,-0.5263,-0.5271,-0.5261,-0.5258,-0.5258,-0.525,-0.525,-0.5241,-0.5251,-0.5248,-0.524,-0.5238,-0.5224,-0.5241,-0.5226,-0.5226,-0.5226,-0.5193,-0.5187,-0.516,-0.5204,-0.5204,-0.5203,0,-0.5274,-0.5269,-0.5251,-0.5248,-0.5245,-0.5237,-0.5229,-0.5223,-0.5218,-0.5218,-0.5213,-0.5217,-0.5205,-0.5217,-0.5199,-0.521,-0.5204,-0.5202,-0.5202,-0.5199,-0.5212,-0.5188,-0.5152,-0.5147,-0.5198,-0.5198,-0.5199,0,-0.5253,-0.5242,-0.5229,-0.5227,-0.5223,-0.5217,-0.5215,-0.5211,-0.5205,-0.5199,-0.5195,-0.5187,-0.5182,-0.5175,-0.5176,-0.5185,-0.5156,-0.5169,-0.5155,-0.5155,-0.5148,-0.5148,-0.5108,-0.5147,-0.5147,-0.5147,-0.5147,0,-0.5228,-0.5216,-0.5219,-0.5211,-0.5197,-0.5201,-0.5187,-0.5186,-0.5181,-0.5172,-0.5178,-0.5169,-0.5171,-0.5161,-0.5162,-0.5146,-0.5144,-0.5142,-0.5142,-0.5141,-0.5141,-0.5136,-0.5138,-0.5146,-0.5146,-0.5146,-0.5146,0,-0.5202,-0.5204,-0.519,-0.5187,-0.5186,-0.5176,-0.5173,-0.5164,-0.5164,-0.5152,-0.5149,-0.5148,-0.5137,-0.5137,-0.5124,-0.5125,-0.5104,-0.5107,-0.5105,-0.5105,-0.509,-0.5091,-0.5045,-0.5038,-0.5082,-0.5082,-0.5082,0,-0.5186,-0.5177,-0.5172,-0.5167,-0.5164,-0.5155,-0.5149,-0.5152,-0.5146,-0.5138,-0.513,-0.5119,-0.5111,-0.5091,-0.5089,-0.5078,-0.508,-0.5065,-0.5078,-0.5076,-0.5077,-0.5077,-0.5075,-0.5062,-0.5061,-0.5061,-0.506,0,-0.5155,-0.5156,-0.5148,-0.514,-0.5133,-0.5127,-0.5121,-0.5115,-0.5117,-0.5109,-0.5098,-0.5091,-0.5077,-0.5065,-0.5055,-0.5051,-0.5055,-0.5056,-0.5052,-0.505,-0.5048,-0.5047,-0.5096,-0.5057,-0.5057,-0.5058,-0.5058,-0.5058,-0.5132,-0.5124,-0.5119,-0.5109,-0.5105,-0.5099,-0.509,-0.5088,-0.5078,-0.5068,-0.5069,-0.5056,-0.5049,-0.5035,-0.503,-0.5018,-0.5023,-0.5018,-0.5016,-0.5014,-0.5011,-0.5051,-0.5016,-0.5016,-0.5017,-0.5017,-0.5017,0,-0.5101,-0.5098,-0.5089,-0.508,-0.5071,-0.5077,-0.507,-0.5062,-0.505,-0.5044,-0.5035,-0.502,-0.5008,-0.5003,-0.4991,-0.4982,-0.4983,-0.4979,-0.4979,-0.4977,-0.5009,-0.5013,-0.4978,-0.4978,-0.4978,-0.4978,-0.4978,-0.4978,-0.5083,-0.5068,-0.5068,-0.5049,-0.5046,-0.5033,-0.5028,-0.5021,-0.5016,-0.4999,-0.4989,-0.4987,-0.498,-0.4967,-0.4956,-0.4955,-0.4949,-0.4943,-0.4942,-0.4971,-0.4975,-0.4979,-0.4983,-0.4942,-0.4942,-0.4912,-0.4911,-0.4911]}]]